This is the latest recevied weather packets stored in our database for station/object KE5BM-13. If no packets are shown the sender has not sent any weather packets the latest 10 day(s).
| Time | Temp. | Humidity | Pressure | Rain* | Wind** | Luminosity | Snow |
|---|---|---|---|---|---|---|---|
| 1777931203 | 14.44° C | 62% | 1009.9 hPa | 0 mm | - | - | - |
| 1777930901 | 14.44° C | 62% | 1009.9 hPa | 0 mm | - | - | - |
| 1777930601 | 15° C | 61% | 1009.9 hPa | 0 mm | - | - | - |
| 1777930301 | 15° C | 61% | 1009.9 hPa | 0 mm | - | - | - |
| 1777930000 | 15° C | 61% | 1009.9 hPa | 0 mm | - | - | - |
| 1777929699 | 15° C | 61% | 1010 hPa | 0 mm | - | - | - |
| 1777929398 | 15° C | 62% | 1010 hPa | 0 mm | - | - | - |
| 1777929098 | 15° C | 61% | 1009.9 hPa | 0 mm | - | - | - |
| 1777928797 | 15° C | 62% | 1009.8 hPa | 0 mm | - | - | - |
| 1777928498 | 15.56° C | 61% | 1009.6 hPa | 0 mm | - | - | - |
| 1777928199 | 15.56° C | 61% | 1009.6 hPa | 0 mm | - | - | - |
| 1777927896 | 15.56° C | 60% | 1009.5 hPa | 0 mm | - | - | - |
| 1777927595 | 15.56° C | 57% | 1009.5 hPa | 0 mm | - | - | - |
| 1777927294 | 16.11° C | 54% | 1009.3 hPa | 0 mm | - | - | - |
| 1777926994 | 16.67° C | 54% | 1009.4 hPa | 0 mm | - | - | - |
| 1777926694 | 16.11° C | 54% | 1009.4 hPa | 0 mm | - | - | - |
| 1777926392 | 16.11° C | 55% | 1009.2 hPa | 0 mm | - | - | - |
| 1777926092 | 16.11° C | 56% | 1009.4 hPa | 0 mm | - | - | - |
| 1777925791 | 16.11° C | 57% | 1009.3 hPa | 0 mm | - | - | - |
| 1777925491 | 16.11° C | 56% | 1009.3 hPa | 0 mm | - | - | - |
| 1777925191 | 16.67° C | 55% | 1009.3 hPa | 0 mm | - | - | - |
| 1777924889 | 16.67° C | 54% | 1009.4 hPa | 0 mm | - | - | - |
| 1777924588 | 16.67° C | 51% | 1009.3 hPa | 0 mm | - | - | - |
| 1777924290 | 16.67° C | 50% | 1009.4 hPa | 0 mm | - | - | - |
| 1777923988 | 17.22° C | 48% | 1009.2 hPa | 0 mm | - | - | - |
* Rain latest hour (hover to see other rain measurements)
** Current wind speed in m/s (hover to see current wind gust speed)